TimeCST,TemperatureF,Dew PointF,Humidity,Sea Level PressureIn,VisibilityMPH,Wind Direction,Wind SpeedMPH,Gust SpeedMPH,PrecipitationIn,Events,Conditions,WindDirDegrees,DateUTC
12:52 AM,-9999,-9999,N/A,30.33,-9999.0,North,-9999.0,-,N/A,,Unknown,0,2013-11-08 06:52:00
1:52 AM,-9999,-9999,N/A,30.32,-9999.0,North,-9999.0,-,N/A,,Unknown,0,2013-11-08 07:52:00
2:52 AM,-9999,-9999,N/A,30.30,-9999.0,North,-9999.0,-,N/A,,Unknown,0,2013-11-08 08:52:00
3:52 AM,-9999,-9999,N/A,30.28,-9999.0,North,-9999.0,-,N/A,,Unknown,0,2013-11-08 09:52:00
4:52 AM,-9999,-9999,N/A,30.28,-9999.0,North,-9999.0,-,N/A,,Unknown,0,2013-11-08 10:52:00
5:52 AM,-9999,-9999,N/A,30.26,-9999.0,North,-9999.0,-,N/A,,Unknown,0,2013-11-08 11:52:00
6:52 AM,-9999,-9999,N/A,30.25,-9999.0,North,-9999.0,-,N/A,,Unknown,0,2013-11-08 12:52:00
7:52 AM,-9999,-9999,N/A,30.25,10.0,South,4.6,-,N/A,,Clear,170,2013-11-08 13:52:00
8:52 AM,-9999,-9999,N/A,30.24,10.0,South,10.4,-,N/A,,Clear,180,2013-11-08 14:52:00
9:52 AM,-9999,-9999,N/A,30.22,10.0,South,11.5,20.7,N/A,,Clear,170,2013-11-08 15:52:00
10:52 AM,-9999,-9999,N/A,30.19,10.0,South,13.8,25.3,N/A,,Clear,190,2013-11-08 16:52:00
11:52 AM,63.0,34.0,34,30.15,10.0,South,20.7,29.9,N/A,,Unknown,190,2013-11-08 17:52:00
12:52 PM,64.9,33.1,31,30.09,10.0,South,23.0,35.7,N/A,,Clear,190,2013-11-08 18:52:00
1:52 PM,66.9,33.1,28,30.06,10.0,SSW,20.7,32.2,N/A,,Clear,200,2013-11-08 19:52:00
2:52 PM,66.9,33.1,28,30.03,10.0,South,13.8,29.9,N/A,,Clear,190,2013-11-08 20:52:00
3:52 PM,66.0,30.9,27,30.01,10.0,South,16.1,35.7,N/A,,Clear,190,2013-11-08 21:52:00
4:52 PM,62.1,32.0,32,29.99,10.0,South,19.6,29.9,N/A,,Clear,180,2013-11-08 22:52:00
5:52 PM,59.0,34.0,39,30.00,10.0,North,-9999.0,-,N/A,,Clear,0,2013-11-08 23:52:00
6:52 PM,57.0,36.0,45,30.03,10.0,South,9.2,20.7,N/A,,Clear,190,2013-11-09 00:52:00
7:52 PM,57.0,35.1,44,30.03,10.0,South,12.7,-,N/A,,Clear,190,2013-11-09 01:52:00
8:52 PM,54.0,37.0,53,30.05,10.0,South,10.4,19.6,N/A,,Clear,190,2013-11-09 02:52:00
9:52 PM,54.0,37.9,55,30.06,10.0,South,11.5,-,N/A,,Clear,190,2013-11-09 03:52:00
10:52 PM,52.0,37.9,59,30.06,10.0,South,9.2,-,N/A,,Clear,190,2013-11-09 04:52:00
11:52 PM,51.1,37.0,59,30.05,10.0,South,8.1,-,N/A,,Clear,190,2013-11-09 05:52:00